Weather History for KJMS - November, 2012

Change the Weather History Date:

Sunday, November 18, 2012

  Actual Average Record
Temperature  
Mean Temperature 35 °F 26 °F  
Max Temperature 46 °F 35 °F 69 °F (1908)
Min Temperature 24 °F 17 °F -7 °F (1903)
Degree Days  
Heating Degree Days 30 39  
Month to date heating degree days 614 607  
Since 1 July heating degree days 1580 1574  
Cooling Degree Days 0 0  
Month to date cooling degree days 0 0  
Year to date cooling degree days 575 446  
Moisture  
Dew Point 29 °F    
Average Humidity 83    
Maximum Humidity 96    
Minimum Humidity 70    
Precipitation  
Precipitation 0.00 in 0.02 in 0.47 in (1998)
Month to date precipitation 0.26 0.43  
Year to date precipitation 12.81 18.17  
Sea Level Pressure  
Sea Level Pressure 29.95 in    
Wind  
Wind Speed 4 mph (SSE)    
Max Wind Speed 17 mph    
Max Gust Speed 24 mph    
Visibility 4 miles    
Events Fog    
T = Trace of Precipitation, MM = Missing Value Source: NWS Daily Summary

Daily Weather History Graph

Daily Weather History Graph

Search for Another Location

Airport or City:

Trip Planner

Search our weather history database for the weather conditions in past years. The results will help you decide how hot, cold, wet, or windy it might be!

Date:

Astronomy

Nov. 18, 2012 Rise Set
Actual Time 7:42 AM CST 4:56 PM CST
Civil Twilight 7:09 AM CST 5:30 PM CST
Nautical Twilight 6:32 AM CST 6:07 PM CST
Astronomical Twilight 5:56 AM CST 6:43 PM CST
Moon 12:06 PM CST (11/18) 10:23 PM CST (11/18)
Length of Visible Light 10h 20m
Length of Day
9h 13m
Waxing Crescent, 30% of the Moon is Illuminated
Nov 18
Waxing Crescent
Nov 20
First Quarter
Nov 28
Full
Dec 6
Last Quarter
Dec 13
New

Hourly Weather History & Observations

Time (CST) Temp. Windchill Dew Point Humidity Pressure Visibility Wind Dir Wind Speed Gust Speed Precip Events Conditions
12:56 AM 27.0 °F 21.6 °F 25.0 °F 92% 30.02 in 4.0 mi NNW 4.6 mph - N/A   Clear
1:56 AM 25.0 °F 20.7 °F 23.0 °F 92% 30.02 in 5.0 mi NW 3.5 mph - N/A   Clear
2:56 AM 26.1 °F - 24.1 °F 92% 30.02 in 5.0 mi Calm Calm - N/A   Clear
3:56 AM 25.0 °F 20.7 °F 23.0 °F 92% 30.01 in 5.0 mi WNW 3.5 mph - N/A   Clear
4:12 AM 24.8 °F - 21.2 °F 86% 29.96 in 5.0 mi Calm Calm - N/A   Scattered Clouds
4:20 AM 24.8 °F 20.5 °F 23.0 °F 93% 29.96 in 4.0 mi NW 3.5 mph - N/A   Mostly Cloudy
4:48 AM 24.8 °F 20.5 °F 21.2 °F 86% 29.95 in 1.8 mi North 3.5 mph - N/A   Overcast
4:56 AM 24.1 °F 19.7 °F 23.0 °F 96% 30.00 in 1.0 mi NNW 3.5 mph - N/A   Mist
5:52 AM 24.8 °F - 23.0 °F 93% 29.95 in 0.2 mi Calm Calm - N/A Fog Light Freezing Fog
5:53 AM 25.0 °F - 23.0 °F 92% 30.01 in 0.2 mi Calm Calm - N/A Fog Light Freezing Fog
6:05 AM 24.8 °F - 23.0 °F 93% 29.94 in 0.2 mi Calm Calm - N/A Fog Light Freezing Fog
6:29 AM 24.8 °F - 23.0 °F 93% 29.95 in 0.5 mi Calm Calm - N/A Fog Light Freezing Fog
6:36 AM 24.8 °F - 23.0 °F 93% 29.94 in 0.2 mi Calm Calm - N/A Fog Light Freezing Fog
6:56 AM 24.1 °F - 23.0 °F 96% 30.00 in 0.2 mi Calm Calm - N/A Fog Light Freezing Fog
7:56 AM 25.0 °F - 21.9 °F 88% 29.99 in 0.2 mi Calm Calm - N/A Fog Light Freezing Fog
8:56 AM 27.0 °F - 24.1 °F 89% 30.00 in 0.2 mi Calm Calm - N/A Fog Light Freezing Fog
9:56 AM 30.0 °F - 26.1 °F 85% 29.99 in 0.2 mi Calm Calm - N/A Fog Light Freezing Fog
10:56 AM 33.1 °F 28.7 °F 30.0 °F 89% 29.99 in 0.2 mi South 4.6 mph - N/A Fog Fog
11:22 AM 33.8 °F - 30.2 °F 87% 29.91 in 0.2 mi Calm Calm - N/A Fog Fog
11:56 AM 33.1 °F 28.7 °F 32.0 °F 96% 29.96 in 0.2 mi South 4.6 mph - N/A Fog Fog
12:48 PM 35.6 °F 30.7 °F 33.8 °F 93% 29.89 in 0.5 mi SSE 5.8 mph - N/A Fog Fog
12:56 PM 35.1 °F 30.1 °F 34.0 °F 96% 29.95 in 0.8 mi SSE 5.8 mph - N/A   Mist
1:30 PM 37.4 °F 30.8 °F 35.6 °F 93% 29.88 in 1.5 mi SSE 9.2 mph - N/A   Overcast
1:48 PM 39.2 °F 32.0 °F 35.6 °F 87% 29.88 in 3.0 mi SE 11.5 mph - N/A   Mostly Cloudy
1:56 PM 39.9 °F 33.9 °F 36.0 °F 86% 29.92 in 5.0 mi SE 9.2 mph - N/A   Scattered Clouds
2:56 PM 46.0 °F 40.2 °F 37.0 °F 71% 29.90 in 10.0 mi SE 12.7 mph - N/A   Clear
3:56 PM 44.1 °F 38.6 °F 36.0 °F 73% 29.91 in 10.0 mi SSE 10.4 mph - N/A   Clear
4:56 PM 39.0 °F 34.8 °F 35.1 °F 86% 29.93 in 8.0 mi SSE 5.8 mph - N/A   Partly Cloudy
5:56 PM 39.9 °F 33.9 °F 35.1 °F 83% 29.91 in 9.0 mi ESE 9.2 mph - N/A   Partly Cloudy
6:56 PM 36.0 °F 30.3 °F 33.1 °F 89% 29.90 in 8.0 mi ESE 6.9 mph - N/A   Clear
7:56 PM 43.0 °F 37.7 °F 36.0 °F 76% 29.89 in 10.0 mi SSE 9.2 mph 18.4 mph N/A   Scattered Clouds
8:56 PM 39.0 °F - 35.1 °F 86% 29.91 in 10.0 mi Calm Calm - N/A   Mostly Cloudy
9:56 PM 36.0 °F - 33.1 °F 89% 29.90 in 8.0 mi Calm Calm - N/A   Clear
10:56 PM 35.1 °F 32.2 °F 32.0 °F 89% 29.90 in 7.0 mi SSE 3.5 mph - N/A   Clear